Wind_Speed
1 2 2 3 3 4 4 5 5 5 4 4 3 3 4 4 4 4 4 5 5 5 6 6 7 7 7 7 7 7 8 8 8 8 8 8 8 8 8 8 8 8 8
1 2 3 3 4 4 4 5 5 4 4 4 4 4 4 5 5 5 4 5 6 6 6 7 8 8 8 8 8 8 8 8 8 8 9 9 9 9 9 8 8 9 9
3 4 4 4 4 4 5 5 4 4 5 5 4 4 5 6 6 5 6 6 7 8 8 8 9 9 9 9 9 9 9 9 9 10 10 10 10 10 10 9 10 9 9
4 5 4 4 5 5 6 6 6 5 5 5 5 5 5 5 6 6 6 6 8 9 9 9 9 9 9 10 10 10 10 10 10 10 10 10 10 10 10 11 11 11 11
5 5 4 5 5 6 6 7 6 5 5 5 5 5 5 5 6 7 7 8 9 9 8 9 9 8 9 10 10 10 9 9 9 9 9 9 10 11 11 11 12 12 12
5 5 6 6 6 6 6 6 6 5 5 5 5 6 6 6 7 7 8 8 8 9 9 9 9 9 9 9 9 9 9 9 9 9 9 9 9 10 10 11 12 13 12
6 6 6 7 7 7 6 6 6 6 6 6 6 6 7 7 7 7 8 8 9 9 9 9 9 9 10 10 9 10 10 10 9 9 8 8 9 9 10 10 11 12 12
6 7 7 8 8 7 7 6 7 7 8 8 8 8 8 8 8 8 8 9 10 10 9 9 9 9 10 11 10 10 11 10 10 9 10 9 10 11 11 11 11 12 13
6 7 8 8 8 7 7 7 8 8 9 9 9 9 8 8 9 9 9 9 10 10 11 10 10 11 10 11 10 10 11 11 11 11 11 11 12 12 12 12 12 12 13
7 7 8 9 9 9 8 8 9 9 9 10 10 10 10 10 10 10 10 10 10 10 10 10 11 11 10 10 10 10 10 11 11 12 13 13 13 13 13 14 14 14 13
7 8 9 9 9 9 9 9 10 10 10 11 11 11 11 11 11 11 10 10 11 11 11 11 11 11 12 12 11 11 11 11 12 13 13 13 14 14 14 15 15 15 15
8 9 9 9 9 9 9 10 11 11 11 12 12 12 12 12 12 12 12 11 11 11 11 12 12 12 13 12 12 11 12 12 13 14 14 15 15 15 15 15 15 16 16
9 10 10 10 10 9 10 11 12 12 13 13 13 13 13 13 13 13 13 13 12 12 12 12 13 13 13 12 13 13 13 14 14 14 15 16 15 16 16 16 16 17 17
11 11 11 11 11 11 12 13 14 14 14 14 14 14 14 14 14 14 14 14 14 14 13 13 13 13 14 14 14 15 15 16 16 16 16 16 17 17 18 17 17 17 18
12 12 12 12 13 13 13 14 15 15 15 15 15 15 15 15 15 15 15 15 15 14 14 14 15 15 15 16 16 16 16 17 17 17 17 17 17 18 18 17 18 18 18
12 13 13 14 14 14 15 15 15 15 15 15 16 15 15 15 16 16 16 15 16 16 16 16 16 16 16 17 18 18 17 17 17 17 18 18 18 18 19 18 18 18 18
13 14 15 15 15 15 16 16 15 16 16 17 17 17 17 17 16 17 17 16 16 17 17 17 18 18 18 19 18 18 18 18 17 18 18 19 19 19 19 19 19 20 19
15 15 16 16 16 16 16 16 17 17 18 18 18 18 18 18 17 18 18 18 18 18 18 18 18 19 19 19 19 18 18 19 19 19 19 19 19 19 20 20 20 19 19
17 17 17 18 18 18 17 18 18 19 19 19 19 19 19 19 19 19 19 19 19 19 19 19 19 19 19 19 19 19 20 20 20 21 21 20 20 20 20 20 20 19 19
18 19 19 19 19 19 20 20 20 20 21 21 21 21 21 20 20 20 20 20 20 20 20 21 21 21 21 21 20 20 20 20 21 21 21 21 20 20 20 20 20 20 20
20 20 20 20 21 22 22 22 22 22 22 22 23 23 23 23 23 22 21 21 21 22 22 23 23 23 23 22 21 21 21 21 21 22 21 21 20 20 21 20 20 20 20
21 21 21 22 22 23 23 23 23 23 23 23 24 24 24 24 24 23 23 23 23 23 23 24 24 24 22 22 22 22 22 22 22 21 22 21 21 20 20 20 20 20 20
23 23 23 23 24 24 24 24 24 24 24 25 25 25 25 25 24 24 24 24 24 24 25 25 25 24 24 24 23 23 24 24 23 22 22 22 22 22 22 21 20 20 21
25 25 25 25 25 25 26 26 26 26 26 27 26 26 26 26 25 25 25 24 24 25 26 26 26 26 25 25 25 25 25 24 24 23 24 24 24 23 23 22 21 22 22
27 27 27 27 27 27 27 27 28 28 28 28 27 27 27 27 26 26 26 26 25 25 26 26 27 26 26 26 26 26 25 25 25 25 24 24 24 24 24 23 24 24 24
30 30 29 29 28 28 28 29 29 29 29 29 28 28 28 28 27 27 27 27 26 26 26 26 27 27 27 26 26 26 26 26 26 26 25 25 25 25 25 25 25 25 25
Wind_Direction
73 34 10 3 12 16 12 1 349 330 326 321 313 294 285 288 293 303 303 295 289 287 283 289 289 290 291 292 291 284 277 275 274 276 271 269 267 261 260 265 267 266 264
35 17 14 11 4 2 356 349 344 342 331 319 319 298 285 288 288 294 295 294 293 292 286 285 286 286 286 289 291 287 281 276 275 281 279 272 270 270 270 268 269 271 267
19 8 1 353 346 341 343 344 348 335 327 329 324 302 294 302 291 295 303 295 290 289 289 288 285 283 285 285 289 287 282 278 276 279 279 274 271 269 269 268 267 272 271
10 5 0 344 334 331 337 337 333 326 320 325 322 317 311 310 303 297 299 295 292 294 291 291 290 288 283 285 288 289 286 280 280 283 282 273 271 271 274 270 270 271 270
8 357 350 338 332 330 336 327 323 324 324 320 320 322 315 303 301 296 296 303 303 299 294 294 294 293 292 290 291 292 288 282 281 282 283 280 275 275 275 273 272 271 267
348 342 338 338 337 333 328 318 317 325 331 329 330 327 315 305 304 305 307 306 308 308 302 295 294 293 298 297 292 294 292 287 284 281 281 280 282 281 280 280 274 271 269
353 345 340 336 332 331 329 322 325 331 333 333 328 322 313 305 303 304 303 302 307 309 305 303 295 293 295 299 297 290 287 287 286 281 280 279 283 284 285 285 282 277 275
341 335 332 332 331 328 326 328 332 329 329 325 324 322 316 310 305 301 301 301 303 305 305 303 301 298 298 296 296 293 287 284 285 284 282 280 282 281 283 287 286 282 276
335 333 333 333 334 331 333 335 334 330 326 324 322 322 319 319 316 312 310 309 307 305 304 299 297 297 296 291 291 289 287 281 280 282 281 280 281 280 280 283 284 283 279
331 334 334 329 331 332 332 329 329 327 325 323 321 317 313 314 314 314 313 311 308 305 305 303 303 303 303 295 291 292 292 285 282 280 280 279 279 279 279 281 283 281 280
333 329 329 329 326 328 330 328 325 323 322 322 319 314 311 311 311 312 311 307 304 303 300 300 298 298 298 298 296 294 294 293 288 282 280 281 279 279 279 279 279 279 279
330 329 327 325 324 325 327 326 322 320 320 318 316 313 309 308 308 307 305 304 301 302 302 302 301 297 296 293 294 296 294 293 295 287 282 281 282 281 283 282 281 280 277
332 331 327 323 317 317 319 323 323 320 319 316 313 311 309 305 304 304 303 302 301 300 299 298 297 297 295 295 296 295 294 295 296 295 288 286 284 282 283 283 282 281 280
331 335 338 334 325 319 316 315 317 317 315 314 312 312 312 311 307 305 302 301 300 299 299 298 297 297 297 296 295 294 293 294 294 295 292 288 285 285 284 282 283 281 279
328 331 333 333 331 328 323 318 317 314 312 310 308 307 307 306 306 305 304 300 300 301 299 298 297 297 296 294 294 294 294 294 294 295 293 290 287 286 286 282 284 281 279
323 325 323 324 324 324 322 320 322 322 320 317 313 310 306 302 302 300 298 297 296 296 294 294 294 294 296 293 293 293 294 293 294 294 292 292 293 288 285 283 283 281 280
319 319 318 318 318 318 318 319 319 321 321 318 315 311 307 303 303 300 296 295 294 293 293 294 295 294 293 292 292 291 290 289 291 292 293 293 294 293 287 283 282 280 278
313 314 313 313 315 316 316 316 318 317 316 316 314 311 306 302 301 301 299 299 295 293 293 295 295 295 294 292 290 289 289 289 290 291 291 293 296 297 293 286 283 284 282
311 312 311 310 312 312 312 312 313 312 312 312 311 311 307 303 300 298 297 297 297 296 296 297 297 297 295 293 292 291 290 289 290 291 290 292 293 295 297 293 287 285 284
307 309 309 308 309 309 309 309 309 309 309 309 308 308 308 306 304 300 298 297 296 296 295 294 295 296 298 297 296 293 292 291 291 291 291 291 291 293 293 292 288 285 283
305 307 307 306 306 306 307 307 306 306 306 306 306 306 306 305 304 302 301 299 298 297 296 295 296 297 295 295 295 294 293 293 292 292 290 290 290 290 291 289 288 286 282
302 304 305 304 304 305 306 305 304 304 304 305 305 305 304 304 305 302 299 297 296 297 296 296 296 296 295 294 293 292 293 293 292 291 290 288 287 289 290 286 285 286 284
298 300 302 303 302 302 304 304 304 303 303 303 303 302 303 305 304 301 298 296 294 294 295 294 294 294 293 292 291 291 291 291 291 290 290 290 289 290 289 285 283 283 286
293 295 298 300 301 301 301 301 302 302 302 301 300 300 301 302 302 301 299 295 293 292 292 292 291 291 291 290 290 291 289 289 289 290 290 291 292 292 290 287 285 285 286
291 293 295 297 298 299 299 299 300 300 300 299 299 299 299 298 298 297 297 295 292 291 290 290 290 289 288 288 288 288 288 287 288 288 289 291 292 291 290 287 286 285 284
291 292 294 295 295 296 296 297 298 299 299 298 297 297 297 295 294 294 294 294 293 291 291 290 288 287 286 285 285 286 287 288 287 287 288 289 290 289 289 288 287 286 284
Height
5895 5896 5896 5896 5896 5896 5896 5896 5896 5895 5895 5895 5895 5895 5895 5895 5895 5895 5895 5895 5894 5894 5894 5894 5894 5894 5894 5894 5894 5893 5893 5894 5894 5894 5894 5894 5894 5894 5894 5895 5895 5895 5895
5896 5897 5897 5897 5897 5897 5897 5896 5896 5895 5895 5895 5895 5894 5894 5893 5893 5893 5893 5893 5893 5893 5893 5893 5893 5892 5892 5892 5892 5891 5891 5891 5892 5892 5892 5892 5892 5892 5893 5893 5893 5893 5893
5897 5897 5898 5898 5897 5897 5897 5896 5896 5895 5895 5895 5894 5894 5893 5893 5893 5892 5892 5892 5892 5892 5891 5891 5891 5891 5890 5890 5890 5889 5889 5889 5890 5890 5890 5890 5890 5890 5891 5891 5891 5891 5891
5898 5898 5898 5898 5897 5897 5896 5896 5895 5895 5895 5894 5894 5893 5893 5892 5891 5891 5891 5890 5890 5890 5889 5889 5889 5889 5888 5888 5888 5887 5887 5887 5887 5887 5887 5887 5887 5888 5888 5888 5888 5889 5889
5898 5898 5898 5897 5897 5896 5896 5895 5895 5894 5894 5893 5893 5892 5892 5891 5890 5889 5889 5889 5889 5888 5887 5887 5887 5886 5886 5886 5885 5885 5884 5884 5884 5884 5884 5884 5885 5885 5885 5885 5886 5886 5886
5899 5898 5897 5897 5896 5896 5895 5895 5894 5893 5893 5892 5892 5891 5891 5890 5889 5888 5888 5888 5887 5886 5885 5885 5884 5884 5884 5883 5883 5882 5882 5882 5882 5882 5882 5882 5882 5882 5882 5882 5882 5882 5883
5898 5898 5897 5896 5896 5895 5894 5893 5893 5892 5891 5891 5891 5890 5889 5889 5888 5887 5886 5885 5885 5884 5883 5883 5882 5882 5881 5880 5880 5880 5879 5879 5879 5879 5879 5879 5880 5880 5880 5880 5879 5879 5879
5898 5897 5896 5896 5895 5894 5893 5893 5892 5891 5890 5890 5889 5889 5888 5888 5886 5885 5884 5884 5883 5882 5880 5880 5880 5879 5878 5877 5877 5877 5876 5876 5876 5876 5876 5877 5877 5877 5877 5877 5876 5876 5876
5898 5897 5896 5895 5894 5893 5892 5892 5891 5890 5889 5889 5888 5887 5886 5886 5884 5884 5882 5882 5880 5879 5878 5877 5876 5876 5874 5873 5874 5874 5873 5873 5873 5873 5873 5874 5874 5874 5874 5873 5873 5872 5872
5897 5896 5895 5894 5893 5892 5891 5890 5890 5889 5888 5887 5886 5885 5884 5883 5883 5882 5881 5879 5878 5877 5876 5874 5874 5873 5871 5870 5871 5871 5870 5870 5870 5870 5870 5870 5870 5870 5870 5869 5869 5869 5868
5896 5895 5894 5893 5892 5891 5890 5889 5888 5887 5886 5885 5884 5883 5882 5881 5880 5879 5878 5877 5876 5874 5873 5873 5872 5870 5869 5869 5868 5868 5867 5867 5867 5866 5866 5866 5866 5866 5866 5865 5865 5865 5864
5895 5894 5893 5892 5891 5890 5889 5888 5887 5885 5884 5883 5882 5881 5879 5878 5877 5876 5875 5874 5873 5872 5871 5870 5869 5868 5867 5866 5864 5864 5864 5863 5862 5861 5861 5861 5861 5861 5861 5861 5860 5860 5860
5894 5893 5892 5891 5890 5889 5888 5886 5885 5883 5882 5881 5879 5878 5876 5875 5874 5873 5872 5871 5870 5869 5868 5867 5866 5865 5863 5862 5861 5861 5860 5859 5858 5857 5857 5857 5857 5857 5856 5856 5856 5855 5855
5893 5892 5891 5889 5888 5887 5886 5884 5883 5881 5880 5878 5876 5875 5874 5872 5871 5870 5868 5867 5866 5866 5865 5864 5862 5861 5860 5859 5858 5857 5857 5856 5855 5854 5853 5852 5852 5852 5851 5851 5851 5850 5850
5892 5891 5889 5888 5886 5885 5883 5882 5880 5878 5877 5875 5873 5872 5870 5869 5867 5866 5865 5864 5863 5862 5861 5860 5858 5858 5856 5854 5854 5853 5852 5852 5850 5849 5848 5847 5847 5847 5846 5846 5845 5845 5844
5890 5889 5887 5886 5885 5883 5881 5879 5877 5875 5873 5872 5870 5868 5867 5865 5864 5862 5861 5860 5859 5858 5857 5856 5854 5854 5852 5850 5849 5849 5848 5847 5846 5845 5844 5843 5842 5842 5841 5840 5840 5840 5839
5888 5886 5885 5883 5882 5880 5878 5876 5874 5872 5870 5868 5866 5865 5863 5861 5860 5858 5857 5856 5854 5853 5852 5851 5850 5849 5848 5846 5845 5844 5843 5842 5841 5840 5839 5838 5837 5836 5836 5835 5835 5834 5834
5885 5883 5882 5880 5878 5876 5875 5873 5871 5869 5867 5865 5863 5861 5859 5857 5856 5854 5852 5851 5850 5848 5848 5847 5845 5844 5843 5841 5840 5839 5838 5837 5836 5835 5834 5832 5831 5830 5829 5829 5828 5828 5827
5882 5880 5878 5876 5875 5873 5871 5869 5867 5865 5863 5861 5859 5857 5855 5853 5851 5850 5848 5846 5845 5844 5842 5841 5840 5839 5837 5836 5835 5834 5833 5832 5831 5829 5828 5827 5826 5825 5824 5823 5822 5821 5821
5878 5876 5874 5872 5870 5868 5867 5865 5863 5861 5859 5857 5855 5853 5851 5849 5847 5845 5843 5841 5840 5838 5837 5835 5834 5833 5832 5830 5829 5828 5827 5826 5825 5823 5822 5821 5820 5819 5818 5817 5816 5815 5815
5874 5872 5870 5868 5866 5864 5862 5860 5858 5855 5854 5852 5850 5848 5846 5843 5841 5839 5838 5836 5834 5833 5832 5830 5829 5827 5826 5824 5823 5822 5821 5820 5819 5817 5816 5815 5814 5814 5812 5811 5810 5809 5809
5869 5867 5865 5863 5861 5858 5856 5854 5852 5850 5848 5846 5844 5842 5840 5838 5836 5834 5832 5830 5829 5827 5826 5824 5823 5821 5820 5818 5817 5816 5814 5813 5812 5812 5810 5809 5808 5807 5806 5805 5804 5803 5803
5864 5862 5860 5857 5855 5853 5850 5848 5846 5844 5842 5840 5838 5836 5834 5832 5830 5828 5826 5824 5823 5821 5820 5818 5816 5815 5813 5812 5811 5810 5808 5807 5806 5805 5803 5802 5802 5801 5800 5799 5798 5797 5796
5857 5855 5853 5851 5849 5847 5844 5842 5840 5837 5835 5833 5831 5829 5827 5825 5823 5821 5819 5818 5816 5814 5813 5811 5810 5808 5807 5805 5804 5803 5801 5800 5799 5798 5796 5796 5795 5794 5793 5792 5791 5791 5790
5850 5848 5846 5844 5842 5840 5838 5836 5833 5830 5828 5826 5824 5822 5820 5818 5816 5814 5812 5811 5809 5807 5805 5803 5802 5801 5799 5798 5797 5796 5795 5793 5792 5792 5790 5789 5788 5787 5786 5785 5784 5783 5783
5843 5841 5839 5836 5834 5833 5831 5828 5826 5824 5822 5820 5818 5816 5813 5811 5809 5807 5805 5803 5802 5800 5798 5796 5795 5793 5792 5791 5790 5788 5787 5786 5785 5784 5784 5783 5781 5780 5779 5778 5777 5776 5775